User: anonymous   Login
Location: Carrer del Canonge
(41.4901°N, 2.2931°E)
Time: 01:41:16
(UTC+00:00)
Language:

MetOp-A - Orbit

View from above orbital plane
View from above orbital plane
View from above satellite
View from above satellite

Ground track
Ground track

The orbit data is extracted from the following two-line orbital elements,

1 29499U 06044A   20339.57347314  .00000022  00000-0  29110-4 0  9999
2 29499  98.5006  20.3415 0001602 109.5226 354.9349 14.21497672733050
Epoch (UTC): 04 December 2020 13:45:48
Eccentricity: 0.0001602
inclination: 98.5006°
perigee height: 819 km
apogee height: 821 km
right ascension of ascending node: 20.3415°
argument of perigee: 109.5226°
revolutions per day: 14.21497672
mean anomaly at epoch: 354.9349°
orbit number at epoch: 73305

The dashed part of the orbit path shows where the satellite is in the earth's shadow,  

DLR